Skip Page Navigation
NASA JPL Caltech
NASA Logo - Jet Propulsion Laboratory + View the NASA Portal
+ Near-Earth Object (NEO) Program
Search JPL
JPL Home Earth Solar System Stars & Galaxies Technology
JPL Solar System Dynamics
BODIES ORBITS EPHEMERIDES TOOLS PHYSICAL DATA DISCOVERY FAQ SITE MAP
JPL Small-Body Database Browser
Search: [ help ]  
1144 Oda (1930 BJ)
Classification: Outer Main-belt Asteroid          SPK-ID: 2001144
Ephemeris | Orbit Diagram | Orbital Elements | Physical Parameters | Discovery Circumstances | Close-Approach Data ]

[ show orbit diagram ]
Orbital Elements at Epoch 2456800.5 (2014-May-23.0) TDB
Reference: JPL 5 (heliocentric ecliptic J2000)
 Element Value Uncertainty (1-sigma)   Units 
e .09536545295282262 6.6943e-08  
a 3.751706071411199 3.9744e-08 AU
q 3.393922922565216 2.6331e-07 AU
i 9.741819496106693 7.2955e-06 deg
node 156.7279573644233 3.9238e-05 deg
peri 220.9535092477325 5.3143e-05 deg
M 328.232851932639 3.9925e-05 deg
tp 2457034.716432967600
(2015-Jan-12.21643297)
0.00029596 JED
period 2654.248838754524
7.27
4.2177e-05
1.155e-07
d
yr
n .1356315936711216 2.1552e-09 deg/d
Q 4.109489220257182 4.3534e-08 AU
  Orbit Determination Parameters
   # obs. used (total)      1252  
   data-arc span      30492 days (83.48 yr)  
   first obs. used      1930-03-29  
   last obs. used      2013-09-21  
   planetary ephem.      DE431  
   SB-pert. ephem.      SB431-BIG16  
   condition code      0  
   fit RMS      .56874  
   data source      ORB  
   producer      Otto Matic  
   solution date      2013-Oct-22 16:01:26  

Additional Information
 Earth MOID = 2.40113 AU 
 T_jup = 3.053 
[ show covariance matrix ]

Ephemeris | Orbit Diagram | Orbital Elements | Physical Parameters | Discovery Circumstances | Close-Approach Data ]

Physical Parameter Table
Parameter Symbol Value Units Sigma Reference Notes
absolute magnitude H 9.9 mag n/a MPO265962  
diameter diameter 57.59 km 2.2 IRAS-A-FPA-3-RDR-IMPS-V6.0 IRAS observations used: 23
rotation period rot_per 14.4 h n/a Asteroid Lightcurve DataBase (Rev. 2013-Sep-12) Result based on fragmentary lightcurve(s), may be completely wrong.
Published Reference List:
[Behrend, R. (2006) Observatoire de Geneve web site, http://obswww.unige.ch/~behrend/page_cou.html]
geometric albedo albedo 0.0533   0.004 IRAS-A-FPA-3-RDR-IMPS-V6.0 IRAS observations used: 23
B-V BV .706 mag .055 EAR-A-5-DDR-UBV-MEAN-VALUES-V1.1 #obs=2; phase (min.=9.76, mean=9.86, max.=9.96) deg.
U-B UB .249 mag .025 EAR-A-5-DDR-UBV-MEAN-VALUES-V1.1 #obs=2; phase (min.=9.76, mean=9.86, max.=9.96) deg.
Tholen spectral type spec_T D   n/a EAR-A-5-DDR-TAXONOMY-V4.0 used 7 color indices

1144 Oda (1930 BJ)          Discovered 1930-Jan-28 by Reinmuth, K. at Heidelberg (024)
Reference: DISCOVERY.DBLast Updated: 2003-08-29

[ show close-approach data ]
Alternate Designations
 1930 BJ = 1959 CJ = 1967 EV 
Ephemeris | Orbit Diagram | Orbital Elements | Physical Parameters | Discovery Circumstances | Close-Approach Data ]
ABOUT SSD CREDITS/AWARDS PRIVACY/COPYRIGHT GLOSSARY LINKS
FirstGov 2014-Apr-20 08:21 UT
(server date/time)  
NASA Home Page
Site Manager:   Donald K. Yeomans
Webmaster  Alan B. Chamberlin